Flag for United Kingdom Weather past 2 weeks in Glasgow, Scotland, United Kingdom

Now
54 °F

Scattered clouds.


Feels Like: 49 °F
Forecast: 38 / 55 °F
Wind: 16 mph from West

Location: Glasgow Airport

Current Time: May 29, 2015 at 5:34:50 PM

Latest Report: May 29, 2015 at 4:50 PM


Visibility: N/A

Pressure: 29.62 "Hg

Humidity: 58%

Dew point: 39 °F

Location of GlasgowLocation

Historic Weather in Glasgow — Graph

°F

Glasgow temperature yesterday

Maximum temperature yesterday: 54 °F (at 1:20 PM)
Minimum temperature yesterday: 43 °F (at 4:20 AM)
Average temperature yesterday: 47 °F

Past Weeks' High & Low Weather Summary

 TemperatureHumidityPressure
High61 °F (May 23, 3:20 PM)100% (May 15, 8:20 PM)30.30 "Hg (May 15, 8:20 PM)
Low32 °F (May 15, 3:50 AM)45% (May 23, 3:20 PM)29.39 "Hg (May 18, 3:50 PM)
Average49 °F78%29.96 "Hg
* Reported May 14 4:20 PM — May 29 4:20 PM, Glasgow, Weather by CustomWeather, © 2015

Note: Actual official high and low records may vary slightly from our data, if they occured in-between our weather recording intervals... More about our weather records

Advertising

Glasgow weather history for previous 24 hours

 ConditionsComfort  
Time TempWeatherWind HumidityBarometerVisibility
4:20 PM
Fri, May 29
54 °FScattered clouds.13 mph58%29.62 "HgN/A
3:50 PM52 °FScattered clouds.13 mph72%29.62 "HgN/A
3:20 PM54 °FScattered clouds.14 mph67%29.62 "HgN/A
2:50 PM54 °FScattered clouds.15 mph63%29.62 "HgN/A
2:20 PM52 °FScattered clouds.13 mph72%29.62 "HgN/A
1:50 PM46 °FLight rain. Broken clouds.10 mph82%29.62 "HgN/A
1:20 PM50 °FBroken clouds.12 mph67%29.62 "HgN/A
12:50 PM52 °FScattered showers. Scattered clouds.13 mph72%29.62 "HgN/A
12:20 PM50 °FScattered clouds.15 mph71%29.62 "HgN/A
11:50 AM50 °FPassing clouds.15 mph71%29.62 "HgN/A
11:20 AM52 °FBroken clouds.12 mph72%29.59 "HgN/A
10:50 AM50 °FBroken clouds.10 mph71%29.62 "HgN/A
10:20 AM48 °FMostly cloudy.10 mph71%29.62 "HgN/A
9:50 AM48 °FBroken clouds.9 mph76%29.62 "HgN/A
9:20 AM48 °FBroken clouds.10 mph71%29.62 "HgN/A
8:50 AM46 °FBroken clouds.9 mph76%29.62 "HgN/A
8:20 AM45 °FBroken clouds.7 mph87%29.62 "HgN/A
7:50 AM45 °FLight rain. Broken clouds.6 mph87%29.62 "HgN/A
7:20 AM45 °FBroken clouds.5 mph87%29.62 "HgN/A
6:50 AM43 °FLight rain. Broken clouds.6 mph87%29.62 "HgN/A
6:20 AM43 °FLight rain. Partly sunny.3 mph87%29.62 "HgN/A
5:50 AM43 °FLight rain. Partly sunny.6 mph93%29.62 "HgN/A
5:20 AM43 °FPassing clouds.7 mph87%29.62 "HgN/A
4:50 AM43 °FPassing clouds.9 mph87%29.62 "HgN/A
4:20 AM43 °FQuite cool.9 mph87%29.65 "HgN/A
3:50 AM43 °FQuite cool.8 mph87%29.65 "HgN/A
3:20 AM43 °FPassing clouds.9 mph87%29.65 "HgN/A
2:50 AM43 °FLight rain. Passing clouds.10 mph87%29.68 "HgN/A
2:20 AM43 °FLight rain. Passing clouds.7 mph93%29.68 "Hg4 mi
1:50 AM43 °FLight rain. Passing clouds.6 mph87%29.68 "HgN/A
1:20 AM43 °FPartly cloudy.6 mph87%29.68 "HgN/A
12:50 AM43 °FPassing clouds.10 mph87%29.71 "HgN/A
12:20 AM45 °FLight rain. Passing clouds.12 mph81%29.71 "HgN/A
11:20 PM
Thu, May 28
45 °FPassing clouds.5 mph81%29.74 "HgN/A
10:50 PM45 °FPassing clouds.5 mph76%29.74 "HgN/A
10:20 PM45 °FPartly sunny.13 mph81%29.74 "HgN/A
9:50 PM45 °FPassing clouds.6 mph87%29.74 "HgN/A
9:20 PM45 °FScattered clouds.12 mph87%29.74 "HgN/A
8:50 PM45 °FSprinkles. Broken clouds.9 mph81%29.74 "HgN/A
8:20 PM48 °FScattered clouds.15 mph76%29.74 "HgN/A
7:50 PM48 °FScattered showers. Scattered clouds.17 mph76%29.74 "HgN/A
7:20 PM50 °FPassing clouds.15 mph71%29.74 "HgN/A
6:50 PM48 °FScattered showers. Broken clouds.15 mph76%29.77 "HgN/A
6:20 PM50 °FScattered showers. Broken clouds.17 mph71%29.77 "HgN/A
5:50 PM48 °FScattered showers. Scattered clouds.12 mph76%29.77 "HgN/A
5:20 PM46 °FSprinkles. Broken clouds.17 mph82%29.77 "HgN/A
Weather by CustomWeather, © 2015

See weather overviewHow to use our weather pages